Regional Weather Roundup
Issued by NWS Portland, ME

Current Version | Previous Version | Text Only | Print | Product List | Glossary Off
Versions: 1 2 3 4 5 6 7 8 9 10 11 12 13 14 15 16 17 18 19 20 21 22 23 24 25 26 27 28 29 30 31 32 33 34 35 36 37 38 39 40 41 42 43 44 45 46 47 48 49 50
599 ASUS41 KGYX 240605 RWRGYX WEATHER ROUNDUP FOR MAINE AND NEW HAMPSHIRE NATIONAL WEATHER SERVICE GRAY ME 200 AM EDT TUE APR 24 2018 MEZ002-005-006-010-012-015-018-020-021-024-026-027-029-240700- MAINE CITY SKY/WX TMP DP RH WIND PRES REMARKS PORTLAND FAIR 39 29 67 SW5 30.38F 6HR MIN TEMP: 38; 6HR MAX TEMP: 49; SANFORD FAIR 43 24 47 SW8 30.38F BAR HARBOR FAIR 40 32 73 S5 30.38F WISCASSET FAIR 39 32 76 CALM 30.39F 6HR MIN TEMP: 36; 6HR MAX TEMP: 48; ROCKLAND FAIR 42 34 73 SW5 30.38F FRYEBURG FAIR 34 27 75 CALM 30.35F 6HR MIN TEMP: 33; 6HR MAX TEMP: 57; LEWISTONAUBURN FAIR 38 20 48 CALM 30.36F AUGUSTA FAIR 38 24 57 S5 30.35F 6HR MIN TEMP: 38; 6HR MAX TEMP: 51; WATERVILLE FAIR 39 23 52 S6 30.32F BANGOR FAIR 42 22 44 S5 30.35F 6HR MIN TEMP: 42; 6HR MAX TEMP: 50; GREENVILLE N/A 39 21 48 CALM 30.26F 6HR MIN TEMP: 39; 6HR MAX TEMP: 52; MILLINOCKET FAIR 34 24 67 E3 30.30F 6HR MIN TEMP: 33; 6HR MAX TEMP: 48; HOULTON FAIR 38 23 55 SW7 30.27F 6HR MIN TEMP: 30; 6HR MAX TEMP: 42; PRESQUE ISLE FAIR 28 22 78 CALM 30.26F 6HR MIN TEMP: 28; 6HR MAX TEMP: 47; FRENCHVILLE FAIR 41 11 29 S7 30.21F 6HR MIN TEMP: 41; 6HR MAX TEMP: 55; CARIBOU FAIR 40 13 33 SW3 30.24F 6HR MIN TEMP: 36; 6HR MAX TEMP: 51; $$ NHZ002-005-008-009-011-012-014-240700- NEW HAMPSHIRE CITY SKY/WX TMP DP RH WIND PRES REMARKS ROCHESTER FAIR 41 24 51 CALM 30.37F 6HR MIN TEMP: 39; 6HR MAX TEMP: 51; NASHUA FAIR 41 26 55 CALM 30.40 MANCHESTER FAIR 49 21 33 S7 30.38F 6HR MIN TEMP: 49; 6HR MAX TEMP: 59; CONCORD FAIR 43 24 47 CALM 30.38F 6HR MIN TEMP: 42; 6HR MAX TEMP: 59; LACONIA FAIR 44 26 49 W3 30.36F PLYMOUTH FAIR 31 29 92 CALM 30.38S BERLIN FAIR 27 23 85 CALM 30.32S 6HR MIN TEMP: 24; 6HR MAX TEMP: 43; WHITEFIELD FAIR 28 23 81 CALM 30.33S 6HR MIN TEMP: 27; 6HR MAX TEMP: 45; JAFFREY FAIR 37 28 70 CALM 30.39S 6HR MIN TEMP: 36; 6HR MAX TEMP: 52; KEENE FAIR 35 26 69 CALM 30.39F LEBANON FAIR 33 25 72 CALM 30.35S 6HR MIN TEMP: 33; 6HR MAX TEMP: 54; MT WASHINGTON PTCLDY 30 16 55 W44 N/A WCI 13 6HR MIN TEMP: 30; 6HR MAX TEMP: 31; $$ VTZ005-007-008-240700- VERMONT CITY SKY/WX TMP DP RH WIND PRES REMARKS ST JOHNSBURY N/A 32 27 81 MISG 30.32S MONTPELIER FAIR 34 23 64 CALM 30.36S BURLINGTON FAIR 54 18 24 S14 30.28F $$ MAZ007-012-024-CTZ003-RIZ002-NYZ038-NYZ072-240700- SOUTHERN NEW ENGLAND AND NY CITY SKY/WX TMP DP RH WIND PRES REMARKS BOSTON FAIR 45 26 47 SW8 30.42F WORCESTER FAIR 41 25 53 SW10 30.39F NANTUCKET FAIR 37 37 100 S6 30.46F PROVIDENCE FAIR 42 37 82 S5 30.44F HARTFORD MOCLDY 42 31 64 S7 30.41F ALBANY MOCLDY 52 24 33 S10 30.36S NEW YORK CITY FAIR 50 42 74 S5 30.41F $$ ANZ081-ANZ082-ANZ150-NHZ014-MEZ023>029-240700- COASTAL MARINE OBSERVATIONS STATION/POSITION TIME TEMP WIND PRES WAVE AIR SEA DIR/SP/G HT/PER (UTC) (F) (DEG/KT/KT) (MB) (FT/S) MOUNT DESERT ROC 0600 43 200/ 16/ 17 1029.4F ISLE OF SHOALS 0500 47 210/ 17/ 18 1029.2F JEFFREYS LEDGE 0536 42 N/A 2/ 4 CASHES LEDGE BUO 0550 43 42 1029.7F 2/ 4 $$ .............KEY.............. WCI - WIND CHILL TC - TEMPERATURE IN CELSIUS VSB - VISIBILITY IN MILES HX - HEAT INDEX FAIR- INDICATES FEW OR NO CLOUDS BELOW 12,000 FT, WITH NO SIGNIFICANT WEATHER AND/OR OBSTRUCTIONS TO VISIBILITY.

USA.gov is the U.S. government's official web portal to all federal, state and local government web resources and services.